Regional Weather Roundup
Issued by NWS Midland/Odessa, TX

Skip options and go directly to product.
Home | Oldest Version | Previous Version | Current Version | All | Text Only | Save Text | Print | Product List | Glossary On

Skip product version selection by date and time.   
568
ASUS44 KMAF 161910
RWRMAF
MIDLAND AREA WEATHER ROUNDUP
NATIONAL WEATHER SERVICE MIDLAND TX
200 PM CDT WED APR 16 2014

...IN SOUTHWEST TEXAS AND SOUTHEAST NEW MEXICO...

CITY           SKY/WX    TMP DP  RH WIND       PRES   REMARKS
ALPINE         MOSUNNY   80  17   9 W14G23    29.96F
ANDREWS        FAIR      77  19  11 S8G20     29.85F
ARTESIA        SUNNY     77  19  11 SE9G20    29.80F
BIG SPRING     SUNNY     77  24  13 S18G24    29.88F
CARLSBAD       SUNNY     80  14   8 SE8       29.79F
DRYDEN           N/A     73  26  17 SE12      29.90F
FORT STOCKTON  SUNNY     85  18   8 CALM      29.81F
GUAD PASS      SUNNY     74  16  11 W23       29.93F
HOBBS          SUNNY     75  14   9 S7        29.85F
MARFA          MOSUNNY   77  19  11 SW15      29.95F
MIDLAND AIRPK  SUNNY     77  21  12 S15G21    29.85F
MIDLAND INTL   SUNNY     76  24  14 S17       29.85F
ODESSA         SUNNY     77  18  11 S14       29.85F
PECOS          SUNNY     82  25  12 S5        29.79F
PRESIDIO       FAIR      77  21  12 S3        29.86F
SEMINOLE       SUNNY     78  19  11 SW8       29.84F
SNYDER         MOSUNNY   70  24  17 S21G28    29.86F
WINK           SUNNY     78  18  10 VRB3      29.81F
$$
...OTHER STATIONS IN TEXAS...

CITY           SKY/WX    TMP DP  RH WIND       PRES   REMARKS
ABILENE        SUNNY     69  29  22 S25G33    29.89F
AMARILLO       SUNNY     71  11  10 NE8       29.82F
AUSTIN         MOSUNNY   68  42  38 S16       30.03F
BROWNSVILLE    PTSUNNY   76  52  43 S16G23    30.03F
CORPUS CHRISTI PTSUNNY   73  47  39 S15G23    30.05F
DALLAS FTW     PTSUNNY   65  33  30 SE26G33   30.03F
DEL RIO        SUNNY     73  36  25 SE18G29   29.94F
EL PASO        MOSUNNY   77   8   7 W9        29.85F
HOUSTON INT    PTSUNNY   62  38  40 E15G22    30.13F
LUBBOCK        MOSUNNY   75  14  10 SW15G22   29.81F
SAN ANGELO     SUNNY     73  27  18 S20G31    29.91F
SAN ANTONIO    MOSUNNY   70  39  32 S16G25    30.03F
WACO           MOSUNNY   66  42  41 SE17G28   30.04F
WICHITA FALLS  NOT AVBL
$$
...OTHER LOCATIONS IN NEW MEXICO...

CITY           SKY/WX    TMP DP  RH WIND       PRES   REMARKS
ALAMAGORDO     MOSUNNY   75  10   8 W6G16     29.86F
ALBUQUERQUE    MOSUNNY   67   8  10 E5        29.87F
CANNON AFB     MOSUNNY   75   4   6 W14       29.81F
CLOVIS         SUNNY     77  18  10 SW16G22   29.83F
HOLLOMAN AFB   MOSUNNY   74  10   8 SE5       29.85F
ROSWELL        SUNNY     79  11   7 SE10      29.78F
RUIDOSO        SUNNY     68   1   7 W13G18    29.96F
SANTA FE       SUNNY     65   6  10 SW10G17   29.88F
TRUTH OR CONSE SUNNY     74   3   6 MISG      29.85F
TUCUMCARI      SUNNY     80  12   7 W9        29.75F
$$

USA.gov is the U.S. government's official web portal to all federal, state and local government web resources and services.